Station CLKN7 - Cape Lookout, NC Image indicating link to RSS feed of recent meteorological observations for station CLKN7


Conditions at CLKN7 as of
(4:00 am EDT)
0800 GMT on 06/21/2024:
     

Click on the graph icon in the table below to see a time series plot of the last five days of that observation.

5-day plot - Wind Direction Wind Direction (WDIR): E ( 80 deg true )
5-day plot - Wind Speed Wind Speed (WSPD): 10 kts
5-day plot - Wind Gust Wind Gust (GST): 11 kts
5-day plot - Atmospheric Pressure Atmospheric Pressure (PRES):30.24 in
5-day plot - Pressure Tendency Pressure Tendency (PTDY):-0.03 in ( Falling )
5-day plot - Air Temperature Air Temperature (ATMP): 77.5 °F
5-day plot - Wind Speed at 10 Meters Wind Speed at 10 meters (WSPD10M): 10 kts
5-day plot - Wind Speed at 20 Meters Wind Speed at 20 meters (WSPD20M): 12 kts
5-day plot -  Wind Speed, Wind Gust and Atmospheric Pressure Combined plot of Wind Speed, Gust, and Air Pressure
Continuous Winds
TIME
(EDT)
5-day plot - Wind Direction WDIR 5-day plot - Wind Speed WSPD
4:00 amE ( 81 deg ) 11 kts
3:50 amENE ( 78 deg ) 10 kts
3:40 amE ( 80 deg ) 10 kts
3:30 amE ( 85 deg ) 10 kts
3:20 amE ( 92 deg ) 12 kts
3:10 amE ( 96 deg ) 12 kts
 
Peak gust during the measurement hour
TIME
(EDT)
5-day plot - Gust Direction GDR 5-day plot - Gust Speed GST
3:03 amE ( 100 deg ) 14 kts
Previous observations
TIME
(EDT)
5-day plot - Wind Direction
WDIR
 
5-day plot - Wind Speed
WSPD
kts
5-day plot - Wind Gust
GST
kts
5-day plot - Wave Height
WVHT
ft
5-day plot - Dominant Wave Period
DPD
sec
5-day plot - Average Wave Period
APD
sec
5-day plot - Mean Wave Direction
MWD
 
5-day plot - Atmospheric Pressure
PRES
in
5-day plot - Pressure Tendency
PTDY
in
5-day plot - Air Temperature
ATMP
°F
5-day plot - Water Temperature
WTMP
°F
5-day plot - Dew Point
DEWP
°F
5-day plot - Salinity
SAL
psu
5-day plot - Visibility
VIS
nmi
5-day plot - Tide (above MLLW)
TIDE
ft
2024-06-21 03:00 am E 12 13----30.26-0.02 77.4-----
2024-06-21 02:00 am E 14 15----30.27-0.02 77.5-----
2024-06-21 01:00 am E 14 16----30.27-0.01 77.4-----
2024-06-21 12:00 am E 13 14----30.28+0.00 77.7-----
2024-06-20 11:00 pm E 14 16----30.29+0.02 77.9-----
2024-06-20 10:00 pm E 15 16----30.28+0.01 78.3-----
2024-06-20 09:00 pm E 13 14----30.28+0.01 78.4-----
2024-06-20 08:00 pm E 11 13----30.27-0.02 78.4-----
2024-06-20 07:00 pmENE 10 12----30.27-0.04 79.2-----
2024-06-20 06:00 pmENE 10 12----30.27-0.05 79.9-----
2024-06-20 05:00 pmENE 11 12----30.29-0.03 79.5-----
2024-06-20 04:00 pmENE 11 13----30.30-0.04 80.4-----
2024-06-20 03:00 pm E 12 14----30.32-0.03 79.0-----
2024-06-20 02:00 pm E 13 16----30.32-0.02 78.8-----
2024-06-20 01:00 pm E 15 18----30.34+0.01 79.7-----
2024-06-20 12:00 pmENE 13 16----30.35+0.02 79.5-----
2024-06-20 11:00 amENE 14 16----30.34+0.03 78.8-----
2024-06-20 10:00 amENE 16 18----30.33+0.02 78.6-----
2024-06-20 09:00 am E 13 16----30.33+0.03 78.1-----
2024-06-20 08:00 am E 15 17----30.31+0.03 77.7-----
2024-06-20 07:00 am E 17 18----30.31+0.03 77.4-----
2024-06-20 06:00 am E 14 16----30.30+0.02 77.2-----
2024-06-20 05:00 am E 14 17----30.29-0.01 77.2-----
2024-06-20 04:00 amESE 12 14----30.28-0.01 77.2-----